| time (UTC) | temp C | wind direction | speed KPH | gust KPH | rain 1hr cm | rain 24hr cm | rain mn cm | humidity % | barometer mb |
| 20260507114003 | 7 | 251 | 0.0 | 0.0 | 0.00 | 0.00 | 0.00 | 75 | 1012.7 |
| 20260507113504 | 7 | 234 | 0.0 | 0.0 | 0.00 | 0.00 | 0.00 | 75 | 1012.7 |
| 20260507113027 | 6 | 240 | 0.0 | 0.0 | 0.00 | 0.00 | 0.00 | 74 | 1012.7 |
| 20260507112502 | 7 | 202 | 0.0 | 0.0 | 0.00 | 0.00 | 0.00 | 74 | 1012.7 |
| 20260507112007 | 7 | 242 | 0.0 | 0.0 | 0.00 | 0.00 | 0.00 | 74 | 1012.7 |
| 20260507111515 | 7 | 213 | 0.0 | 0.0 | 0.00 | 0.00 | 0.00 | 74 | 1012.7 |
| 20260507111006 | 6 | 251 | 0.0 | 0.0 | 0.00 | 0.00 | 0.00 | 74 | 1012.7 |
| 20260507110507 | 6 | 213 | 0.0 | 0.0 | 0.00 | 0.00 | 0.00 | 74 | 1012.7 |
| 20260507110020 | 6 | 216 | 0.0 | 0.0 | 0.00 | 0.00 | 0.00 | 74 | 1012.7 |
| 20260507105509 | 6 | 221 | 0.0 | 0.0 | 0.00 | 0.00 | 0.00 | 74 | 1012.6 |
| 20260507105004 | 6 | 205 | 0.0 | 0.0 | 0.00 | 0.00 | 0.00 | 74 | 1012.7 |
| 20260507104515 | 6 | 213 | 0.0 | 0.0 | 0.00 | 0.00 | 0.00 | 73 | 1012.7 |
| 20260507104010 | 6 | 238 | 0.0 | 0.0 | 0.00 | 0.00 | 0.00 | 73 | 1012.8 |
| 20260507103512 | 6 | 243 | 0.0 | 0.0 | 0.00 | 0.00 | 0.00 | 73 | 1012.7 |
| 20260507103004 | 6 | 241 | 0.0 | 0.0 | 0.00 | 0.00 | 0.00 | 73 | 1012.7 |
| 20260507102506 | 6 | 211 | 0.0 | 0.0 | 0.00 | 0.00 | 0.00 | 72 | 1012.7 |
| 20260507102014 | 6 | 210 | 0.0 | 0.0 | 0.00 | 0.00 | 0.00 | 72 | 1012.7 |
| 20260507101508 | 7 | 209 | 0.0 | 0.0 | 0.00 | 0.00 | 0.00 | 72 | 1012.7 |
| 20260507101007 | 7 | 211 | 0.0 | 0.0 | 0.00 | 0.00 | 0.00 | 71 | 1012.6 |
| 20260507100506 | 7 | 192 | 0.0 | 0.0 | 0.00 | 0.00 | 0.00 | 71 | 1012.7 |
| 20260507100021 | 7 | 200 | 0.0 | 0.0 | 0.00 | 0.00 | 0.00 | 71 | 1012.8 |
| 20260507095504 | 7 | 202 | 0.0 | 0.0 | 0.00 | 0.00 | 0.00 | 70 | 1012.8 |
| 20260507095006 | 7 | 197 | 0.0 | 0.0 | 0.00 | 0.00 | 0.00 | 70 | 1012.8 |
| 20260507094526 | 7 | 198 | 0.0 | 0.0 | 0.00 | 0.00 | 0.00 | 70 | 1012.9 |
| 20260507094015 | 7 | 196 | 0.0 | 0.0 | 0.00 | 0.00 | 0.00 | 69 | 1012.9 |
| 20260507093507 | 7 | 196 | 0.0 | 0.0 | 0.00 | 0.00 | 0.00 | 69 | 1013.0 |
| 20260507093020 | 7 | 205 | 0.0 | 0.0 | 0.00 | 0.00 | 0.00 | 69 | 1013.1 |
| 20260507092509 | 7 | 206 | 0.0 | 0.0 | 0.00 | 0.00 | 0.00 | 68 | 1013.1 |
| 20260507092006 | 7 | 206 | 0.0 | 0.0 | 0.00 | 0.00 | 0.00 | 68 | 1013.1 |
| 20260507091511 | 7 | 238 | 0.0 | 0.0 | 0.00 | 0.00 | 0.00 | 68 | 1013.1 |
| 20260507091007 | 8 | 206 | 0.0 | 0.0 | 0.00 | 0.00 | 0.00 | 67 | 1013.2 |
| 20260507090503 | 8 | 214 | 0.0 | 0.0 | 0.00 | 0.00 | 0.00 | 67 | 1013.2 |
| 20260507090016 | 8 | 224 | 0.0 | 0.0 | 0.00 | 0.00 | 0.00 | 67 | 1013.2 |
| 20260507085507 | 8 | 202 | 0.0 | 0.0 | 0.00 | 0.00 | 0.00 | 67 | 1013.3 |
| 20260507085009 | 8 | 213 | 0.0 | 0.0 | 0.00 | 0.00 | 0.00 | 66 | 1013.4 |
| 20260507084512 | 8 | 213 | 0.0 | 1.6 | 0.00 | 0.00 | 0.00 | 66 | 1013.4 |
| 20260507084008 | 8 | 207 | 0.0 | 1.6 | 0.00 | 0.00 | 0.00 | 66 | 1013.4 |
| 20260507083508 | 8 | 239 | 0.0 | 1.6 | 0.00 | 0.00 | 0.00 | 66 | 1013.5 |
| 20260507083024 | 8 | 205 | 0.0 | 0.0 | 0.00 | 0.00 | 0.00 | 65 | 1013.6 |
| 20260507082507 | 8 | 216 | 0.0 | 0.0 | 0.00 | 0.00 | 0.00 | 65 | 1013.7 |
| 20260507082010 | 8 | 242 | 0.0 | 0.0 | 0.00 | 0.00 | 0.00 | 64 | 1013.7 |
| 20260507081531 | 8 | 242 | 0.0 | 0.0 | 0.00 | 0.00 | 0.00 | 64 | 1013.7 |
| 20260507081010 | 8 | 205 | 0.0 | 0.0 | 0.00 | 0.00 | 0.00 | 64 | 1013.7 |
| 20260507080507 | 8 | 202 | 0.0 | 0.0 | 0.00 | 0.00 | 0.00 | 64 | 1013.8 |
| 20260507080013 | 8 | 198 | 0.0 | 0.0 | 0.00 | 0.00 | 0.00 | 64 | 1013.9 |
| 20260507075503 | 8 | 211 | 0.0 | 0.0 | 0.00 | 0.00 | 0.00 | 64 | 1013.9 |
| 20260507075008 | 8 | 205 | 0.0 | 0.0 | 0.00 | 0.00 | 0.00 | 63 | 1013.9 |
| 20260507074518 | 7 | 240 | 0.0 | 0.0 | 0.00 | 0.00 | 0.00 | 63 | 1013.9 |
| 20260507074009 | 7 | 205 | 0.0 | 0.0 | 0.00 | 0.00 | 0.00 | 63 | 1014.0 |
| 20260507073510 | 7 | 246 | 0.0 | 0.0 | 0.00 | 0.00 | 0.00 | 62 | 1014.0 |
| 20260507073019 | 7 | 246 | 0.0 | 0.0 | 0.00 | 0.00 | 0.00 | 62 | 1014.1 |
| 20260507072508 | 7 | 231 | 0.0 | 0.0 | 0.00 | 0.00 | 0.00 | 61 | 1014.1 |
| 20260507072007 | 7 | 279 | 0.0 | 0.0 | 0.00 | 0.00 | 0.00 | 60 | 1014.2 |
| 20260507071514 | 6 | 279 | 0.0 | 0.0 | 0.00 | 0.00 | 0.00 | 59 | 1014.2 |
| 20260507071009 | 6 | 279 | 0.0 | 0.0 | 0.00 | 0.00 | 0.00 | 58 | 1014.3 |
| 20260507070503 | 6 | 279 | 0.0 | 0.0 | 0.00 | 0.00 | 0.00 | 57 | 1014.4 |
| 20260507070013 | 6 | 279 | 0.0 | 0.0 | 0.00 | 0.00 | 0.00 | 57 | 1014.5 |
| 20260507065503 | 6 | 279 | 0.0 | 0.0 | 0.00 | 0.00 | 0.00 | 56 | 1014.6 |
| 20260507065002 | 6 | 279 | 0.0 | 0.0 | 0.00 | 0.00 | 0.00 | 55 | 1014.6 |
| 20260507064512 | 6 | 279 | 0.0 | 0.0 | 0.00 | 0.00 | 0.00 | 54 | 1014.7 |
| 20260507064006 | 6 | 279 | 0.0 | 0.0 | 0.00 | 0.00 | 0.00 | 54 | 1014.7 |
| 20260507063503 | 6 | 279 | 0.0 | 0.0 | 0.00 | 0.00 | 0.00 | 53 | 1014.8 |
| 20260507063002 | 6 | 279 | 0.0 | 0.0 | 0.00 | 0.00 | 0.00 | 53 | 1014.8 |
| 20260507062503 | 6 | 279 | 0.0 | 0.0 | 0.00 | 0.00 | 0.00 | 52 | 1015.0 |
| 20260507062009 | 6 | 279 | 0.0 | 0.0 | 0.00 | 0.00 | 0.00 | 52 | 1015.0 |
| 20260507061504 | 6 | 279 | 0.0 | 0.0 | 0.00 | 0.00 | 0.00 | 52 | 1014.9 |
| 20260507061003 | 6 | 279 | 0.0 | 0.0 | 0.00 | 0.00 | 0.00 | 51 | 1015.0 |
| 20260507060503 | 6 | 279 | 0.0 | 0.0 | 0.00 | 0.00 | 0.00 | 51 | 1015.0 |
| 20260507060003 | 6 | 279 | 0.0 | 0.0 | 0.00 | 0.00 | 0.00 | 51 | 1015.1 |
| 20260507055504 | 7 | 279 | 0.0 | 0.0 | 0.00 | 0.00 | 0.00 | 52 | 1015.0 |
| 20260507055002 | 7 | 279 | 0.0 | 0.0 | 0.00 | 0.00 | 0.00 | 53 | 1015.1 |
| 20260507054515 | 7 | 279 | 0.0 | 0.0 | 0.00 | 0.00 | 0.00 | 53 | 1015.0 |
| 20260507054003 | 7 | 279 | 0.0 | 0.0 | 0.00 | 0.00 | 0.00 | 52 | 1015.0 |
| 20260507053502 | 7 | 279 | 0.0 | 0.0 | 0.00 | 0.00 | 0.00 | 51 | 1015.1 |
| 20260507053015 | 7 | 279 | 0.0 | 0.0 | 0.00 | 0.00 | 0.00 | 52 | 1015.1 |
| 20260507052506 | 7 | 279 | 0.0 | 0.0 | 0.00 | 0.00 | 0.00 | 52 | 1015.1 |
| 20260507052003 | 7 | 279 | 0.0 | 0.0 | 0.00 | 0.00 | 0.00 | 52 | 1015.1 |
| 20260507051510 | 7 | 279 | 0.0 | 0.0 | 0.00 | 0.00 | 0.00 | 52 | 1015.0 |
| 20260507051006 | 7 | 279 | 0.0 | 0.0 | 0.00 | 0.00 | 0.00 | 53 | 1015.0 |
| 20260507050503 | 7 | 279 | 0.0 | 0.0 | 0.00 | 0.00 | 0.00 | 54 | 1015.1 |
| 20260507050015 | 7 | 279 | 0.0 | 0.0 | 0.00 | 0.00 | 0.00 | 54 | 1015.0 |
| 20260507045503 | 7 | 279 | 0.0 | 0.0 | 0.00 | 0.00 | 0.00 | 54 | 1015.1 |
| 20260507045003 | 7 | 279 | 0.0 | 0.0 | 0.00 | 0.00 | 0.00 | 54 | 1015.1 |
| 20260507044507 | 7 | 279 | 0.0 | 0.0 | 0.00 | 0.00 | 0.00 | 54 | 1015.1 |
| 20260507044003 | 7 | 279 | 0.0 | 0.0 | 0.00 | 0.00 | 0.00 | 54 | 1015.2 |
| 20260507043507 | 8 | 279 | 0.0 | 0.0 | 0.00 | 0.00 | 0.00 | 54 | 1015.2 |
| 20260507043011 | 8 | 279 | 0.0 | 0.0 | 0.00 | 0.00 | 0.00 | 53 | 1015.2 |
| 20260507042503 | 8 | 279 | 0.0 | 0.0 | 0.00 | 0.00 | 0.00 | 53 | 1015.3 |
| 20260507042007 | 8 | 279 | 0.0 | 0.0 | 0.00 | 0.00 | 0.00 | 53 | 1015.3 |
| 20260507041514 | 8 | 279 | 0.0 | 0.0 | 0.00 | 0.00 | 0.00 | 53 | 1015.3 |
| 20260507041003 | 8 | 279 | 0.0 | 0.0 | 0.00 | 0.00 | 0.00 | 52 | 1015.4 |
| 20260507040503 | 8 | 279 | 0.0 | 0.0 | 0.00 | 0.00 | 0.00 | 50 | 1015.4 |
| 20260507040018 | 8 | 279 | 0.0 | 0.0 | 0.00 | 0.00 | 0.00 | 50 | 1015.5 |
| 20260507035502 | 8 | 279 | 0.0 | 0.0 | 0.00 | 0.00 | 0.00 | 49 | 1015.5 |
| 20260507035003 | 8 | 279 | 0.0 | 0.0 | 0.00 | 0.00 | 0.00 | 48 | 1015.5 |
| 20260507034505 | 8 | 279 | 0.0 | 0.0 | 0.00 | 0.00 | 0.00 | 47 | 1015.7 |
| 20260507034003 | 9 | 279 | 0.0 | 0.0 | 0.00 | 0.00 | 0.00 | 46 | 1015.7 |
| 20260507033504 | 9 | 279 | 0.0 | 0.0 | 0.00 | 0.00 | 0.00 | 43 | 1015.7 |
| 20260507033010 | 9 | 279 | 0.0 | 0.0 | 0.00 | 0.00 | 0.00 | 41 | 1015.8 |
| 20260507032504 | 9 | 279 | 0.0 | 0.0 | 0.00 | 0.00 | 0.00 | 39 | 1015.8 |
| 20260507032005 | 9 | 279 | 0.0 | 0.0 | 0.00 | 0.00 | 0.00 | 36 | 1015.8 |
| 20260507031504 | 10 | 279 | 0.0 | 0.0 | 0.00 | 0.00 | 0.00 | 35 | 1015.8 |
| 20260507031006 | 10 | 279 | 0.0 | 0.0 | 0.00 | 0.00 | 0.00 | 33 | 1015.8 |
| 20260507030508 | 10 | 279 | 0.0 | 0.0 | 0.00 | 0.00 | 0.00 | 33 | 1015.8 |
| 20260507030025 | 10 | 279 | 0.0 | 0.0 | 0.00 | 0.00 | 0.00 | 33 | 1015.7 |
| 20260507025504 | 10 | 279 | 0.0 | 0.0 | 0.00 | 0.00 | 0.00 | 32 | 1015.7 |
| 20260507025005 | 10 | 279 | 0.0 | 0.0 | 0.00 | 0.00 | 0.00 | 31 | 1015.7 |
| 20260507024521 | 10 | 279 | 0.0 | 0.0 | 0.00 | 0.00 | 0.00 | 30 | 1015.8 |
| 20260507024002 | 10 | 279 | 0.0 | 0.0 | 0.00 | 0.00 | 0.00 | 31 | 1015.8 |
| 20260507023502 | 11 | 279 | 0.0 | 0.0 | 0.00 | 0.00 | 0.00 | 29 | 1015.7 |
| 20260507023004 | 11 | 279 | 0.0 | 0.0 | 0.00 | 0.00 | 0.00 | 29 | 1015.6 |
| 20260507022504 | 11 | 279 | 0.0 | 0.0 | 0.00 | 0.00 | 0.00 | 29 | 1015.6 |
| 20260507022005 | 11 | 279 | 0.0 | 0.0 | 0.00 | 0.00 | 0.00 | 28 | 1015.6 |
| 20260507021513 | 11 | 279 | 0.0 | 0.0 | 0.00 | 0.00 | 0.00 | 28 | 1015.6 |
| 20260507021008 | 11 | 279 | 0.0 | 0.0 | 0.00 | 0.00 | 0.00 | 27 | 1015.5 |
| 20260507020503 | 11 | 279 | 0.0 | 0.0 | 0.00 | 0.00 | 0.00 | 27 | 1015.4 |
| 20260507020009 | 11 | 279 | 0.0 | 0.0 | 0.00 | 0.00 | 0.00 | 27 | 1015.4 |
| 20260507015506 | 11 | 279 | 0.0 | 0.0 | 0.00 | 0.00 | 0.00 | 28 | 1015.4 |
| 20260507015007 | 12 | 279 | 0.0 | 0.0 | 0.00 | 0.00 | 0.00 | 27 | 1015.4 |
| 20260507014508 | 12 | 279 | 0.0 | 0.0 | 0.00 | 0.00 | 0.00 | 26 | 1015.4 |
| 20260507014006 | 12 | 279 | 0.0 | 0.0 | 0.00 | 0.00 | 0.00 | 26 | 1015.4 |
| 20260507013509 | 12 | 279 | 0.0 | 0.0 | 0.00 | 0.00 | 0.00 | 26 | 1015.4 |
| 20260507013028 | 12 | 279 | 0.0 | 0.0 | 0.00 | 0.00 | 0.00 | 27 | 1015.3 |
| 20260507012505 | 13 | 279 | 0.0 | 0.0 | 0.00 | 0.00 | 0.00 | 26 | 1015.3 |
| 20260507012004 | 13 | 269 | 0.0 | 0.0 | 0.00 | 0.00 | 0.00 | 26 | 1015.3 |
| 20260507011511 | 13 | 268 | 0.0 | 0.0 | 0.00 | 0.00 | 0.00 | 26 | 1015.2 |
| 20260507011005 | 13 | 304 | 0.0 | 0.0 | 0.00 | 0.00 | 0.00 | 25 | 1015.3 |
| 20260507010508 | 13 | 282 | 0.0 | 0.0 | 0.00 | 0.00 | 0.00 | 25 | 1015.4 |
| 20260507010014 | 14 | 295 | 0.0 | 0.0 | 0.00 | 0.00 | 0.00 | 24 | 1015.4 |
| 20260507005513 | 14 | 295 | 0.0 | 0.0 | 0.00 | 0.00 | 0.00 | 23 | 1015.4 |
| 20260507005003 | 14 | 295 | 0.0 | 0.0 | 0.00 | 0.00 | 0.00 | 24 | 1015.4 |
| 20260507004511 | 14 | 333 | 0.0 | 0.0 | 0.00 | 0.00 | 0.00 | 22 | 1015.4 |
| 20260507004007 | 15 | 304 | 0.0 | 9.7 | 0.00 | 0.00 | 0.00 | 22 | 1015.4 |
| 20260507003504 | 15 | 329 | 0.0 | 9.7 | 0.00 | 0.00 | 0.00 | 22 | 1015.4 |
| 20260507003006 | 15 | 321 | 0.0 | 12.9 | 0.00 | 0.00 | 0.00 | 23 | 1015.4 |
| 20260507002507 | 15 | 317 | 0.0 | 12.9 | 0.00 | 0.00 | 0.00 | 22 | 1015.5 |
| 20260507002012 | 15 | 305 | 0.0 | 12.9 | 0.00 | 0.00 | 0.00 | 22 | 1015.5 |
| 20260507001506 | 15 | 328 | 1.6 | 12.9 | 0.00 | 0.00 | 0.00 | 23 | 1015.5 |
| 20260507001004 | 15 | 328 | 3.2 | 12.9 | 0.00 | 0.00 | 0.00 | 22 | 1015.5 |
| 20260507000504 | 15 | 282 | 3.2 | 14.5 | 0.00 | 0.00 | 0.00 | 23 | 1015.7 |
| 20260507000008 | 15 | 323 | 6.4 | 14.5 | 0.00 | 0.00 | 0.00 | 22 | 1015.6 |
| 20260506235504 | 15 | 313 | 1.6 | 12.9 | 0.00 | 0.00 | 0.00 | 23 | 1015.7 |
| 20260506235004 | 15 | 271 | 0.0 | 1.6 | 0.00 | 0.00 | 0.00 | 22 | 1015.7 |
| 20260506234512 | 15 | 321 | 0.0 | 9.7 | 0.00 | 0.00 | 0.00 | 21 | 1015.8 |
| 20260506234003 | 15 | 296 | 0.0 | 9.7 | 0.00 | 0.00 | 0.00 | 22 | 1015.8 |
| 20260506233504 | 15 | 318 | 0.0 | 0.0 | 0.00 | 0.00 | 0.00 | 21 | 1015.8 |
| 20260506233004 | 15 | 294 | 0.0 | 16.1 | 0.00 | 0.00 | 0.00 | 20 | 1015.9 |
| 20260506232502 | 15 | 350 | 4.8 | 16.1 | 0.00 | 0.00 | 0.00 | 21 | 1015.9 |
| 20260506232003 | 15 | 300 | 0.0 | 16.1 | 0.00 | 0.00 | 0.00 | 22 | 1015.8 |
| 20260506231503 | 15 | 319 | 6.4 | 16.1 | 0.00 | 0.00 | 0.00 | 21 | 1015.8 |
| 20260506231002 | 15 | 15 | 1.6 | 16.1 | 0.00 | 0.00 | 0.00 | 24 | 1015.9 |
| 20260506230501 | 15 | 317 | 1.6 | 16.1 | 0.00 | 0.00 | 0.00 | 23 | 1015.9 |
| 20260506230014 | 15 | 275 | 1.6 | 14.5 | 0.00 | 0.00 | 0.00 | 23 | 1016.0 |
| 20260506225505 | 15 | 277 | 0.0 | 14.5 | 0.00 | 0.00 | 0.00 | 22 | 1016.0 |
| 20260506225006 | 15 | 304 | 3.2 | 19.3 | 0.00 | 0.00 | 0.00 | 23 | 1016.1 |
| 20260506224528 | 15 | 277 | 6.4 | 20.9 | 0.00 | 0.00 | 0.00 | 21 | 1016.0 |
| 20260506224005 | 15 | 312 | 9.7 | 27.4 | 0.00 | 0.00 | 0.00 | 21 | 1016.0 |
| 20260506223503 | 15 | 254 | 11.3 | 27.4 | 0.00 | 0.00 | 0.00 | 22 | 1016.0 |
| 20260506223014 | 15 | 335 | 8.0 | 25.7 | 0.00 | 0.00 | 0.00 | 22 | 1016.1 |
| 20260506222507 | 15 | 323 | 9.7 | 25.7 | 0.00 | 0.00 | 0.00 | 21 | 1016.1 |
| 20260506222007 | 15 | 305 | 9.7 | 22.5 | 0.00 | 0.00 | 0.00 | 21 | 1016.1 |
| 20260506221503 | 15 | 294 | 8.0 | 22.5 | 0.00 | 0.00 | 0.00 | 21 | 1016.2 |
| 20260506221003 | 15 | 352 | 6.4 | 22.5 | 0.00 | 0.00 | 0.00 | 22 | 1016.3 |
| 20260506220504 | 15 | 225 | 0.0 | 12.9 | 0.00 | 0.00 | 0.00 | 23 | 1016.4 |
| 20260506220004 | 15 | 308 | 4.8 | 14.5 | 0.00 | 0.00 | 0.00 | 21 | 1016.4 |
| 20260506215503 | 15 | 225 | 0.0 | 20.9 | 0.00 | 0.00 | 0.00 | 25 | 1016.4 |
| 20260506215003 | 15 | 333 | 1.6 | 22.5 | 0.00 | 0.00 | 0.00 | 20 | 1016.5 |
| 20260506214506 | 15 | 305 | 0.0 | 24.1 | 0.00 | 0.00 | 0.00 | 21 | 1016.5 |
| 20260506214004 | 15 | 302 | 9.7 | 24.1 | 0.00 | 0.00 | 0.00 | 25 | 1016.5 |
| 20260506213503 | 15 | 310 | 9.7 | 20.9 | 0.00 | 0.00 | 0.00 | 22 | 1016.7 |
| 20260506213010 | 15 | 306 | 3.2 | 20.9 | 0.00 | 0.00 | 0.00 | 24 | 1016.5 |
| 20260506212503 | 15 | 300 | 9.7 | 20.9 | 0.00 | 0.00 | 0.00 | 21 | 1016.7 |
| 20260506212003 | 15 | 312 | 11.3 | 25.7 | 0.00 | 0.00 | 0.00 | 23 | 1016.8 |
| 20260506211517 | 15 | 296 | 11.3 | 27.4 | 0.00 | 0.00 | 0.00 | 22 | 1016.8 |
| 20260506211006 | 15 | 345 | 12.9 | 27.4 | 0.00 | 0.00 | 0.00 | 22 | 1017.0 |
| 20260506210503 | 15 | 303 | 9.7 | 19.3 | 0.00 | 0.00 | 0.00 | 25 | 1017.0 |
| 20260506210009 | 14 | 313 | 6.4 | 20.9 | 0.00 | 0.00 | 0.00 | 23 | 1017.0 |
| 20260506205505 | 14 | 289 | 8.0 | 20.9 | 0.00 | 0.00 | 0.00 | 23 | 1017.2 |
| 20260506205004 | 14 | 327 | 8.0 | 19.3 | 0.00 | 0.00 | 0.00 | 23 | 1017.3 |
| 20260506204505 | 14 | 286 | 8.0 | 19.3 | 0.00 | 0.00 | 0.00 | 23 | 1017.3 |
| 20260506204002 | 13 | 304 | 8.0 | 19.3 | 0.00 | 0.00 | 0.00 | 26 | 1017.4 |
| 20260506203502 | 13 | 277 | 8.0 | 19.3 | 0.00 | 0.00 | 0.00 | 24 | 1017.4 |
| 20260506203005 | 13 | 342 | 9.7 | 17.7 | 0.00 | 0.00 | 0.00 | 24 | 1017.4 |
| 20260506202503 | 14 | 304 | 4.8 | 22.5 | 0.00 | 0.00 | 0.00 | 24 | 1017.4 |
| 20260506202007 | 14 | 315 | 8.0 | 22.5 | 0.00 | 0.00 | 0.00 | 23 | 1017.6 |
| 20260506201519 | 14 | 292 | 11.3 | 20.9 | 0.00 | 0.00 | 0.00 | 23 | 1017.5 |
| 20260506201004 | 13 | 306 | 9.7 | 24.1 | 0.00 | 0.00 | 0.00 | 26 | 1017.5 |
| 20260506200506 | 13 | 284 | 6.4 | 24.1 | 0.00 | 0.00 | 0.00 | 25 | 1017.7 |
| 20260506200019 | 13 | 298 | 6.4 | 20.9 | 0.00 | 0.00 | 0.00 | 25 | 1017.8 |
| 20260506195503 | 13 | 313 | 11.3 | 22.5 | 0.00 | 0.00 | 0.00 | 25 | 1017.8 |
| 20260506195004 | 13 | 20 | 9.7 | 22.5 | 0.00 | 0.00 | 0.00 | 25 | 1017.8 |
| 20260506194504 | 13 | 292 | 9.7 | 22.5 | 0.00 | 0.00 | 0.00 | 26 | 1017.9 |
| 20260506194006 | 13 | 296 | 8.0 | 22.5 | 0.00 | 0.00 | 0.00 | 26 | 1017.9 |
| 20260506193505 | 13 | 315 | 8.0 | 16.1 | 0.00 | 0.00 | 0.00 | 26 | 1018.0 |
| 20260506193003 | 13 | 335 | 3.2 | 24.1 | 0.00 | 0.00 | 0.00 | 26 | 1018.0 |
| 20260506192502 | 13 | 335 | 9.7 | 24.1 | 0.00 | 0.00 | 0.00 | 25 | 1018.1 |
| 20260506192006 | 13 | 309 | 4.8 | 25.7 | 0.00 | 0.00 | 0.00 | 27 | 1018.1 |
| 20260506191510 | 13 | 275 | 12.9 | 25.7 | 0.00 | 0.00 | 0.00 | 30 | 1018.0 |
| 20260506191007 | 13 | 314 | 12.9 | 22.5 | 0.00 | 0.00 | 0.00 | 25 | 1018.0 |
| 20260506190507 | 13 | 274 | 8.0 | 29.0 | 0.00 | 0.00 | 0.00 | 25 | 1018.0 |
| 20260506190004 | 13 | 321 | 16.1 | 29.0 | 0.00 | 0.00 | 0.00 | 27 | 1018.1 |
| 20260506185505 | 13 | 282 | 0.0 | 19.3 | 0.00 | 0.00 | 0.00 | 27 | 1018.1 |
| 20260506185007 | 13 | 15 | 3.2 | 33.8 | 0.00 | 0.00 | 0.00 | 26 | 1018.2 |
| 20260506184522 | 13 | 295 | 14.5 | 33.8 | 0.00 | 0.00 | 0.00 | 28 | 1018.3 |
| 20260506184003 | 13 | 271 | 6.4 | 24.1 | 0.00 | 0.00 | 0.00 | 26 | 1018.3 |
| 20260506183505 | 13 | 290 | 8.0 | 24.1 | 0.00 | 0.00 | 0.00 | 27 | 1018.4 |
| 20260506183022 | 13 | 327 | 9.7 | 19.3 | 0.00 | 0.00 | 0.00 | 26 | 1018.4 |
| 20260506182504 | 13 | 313 | 6.4 | 29.0 | 0.00 | 0.00 | 0.00 | 28 | 1018.4 |
| 20260506182004 | 12 | 259 | 6.4 | 29.0 | 0.00 | 0.00 | 0.00 | 27 | 1018.4 |
| 20260506181508 | 12 | 316 | 11.3 | 22.5 | 0.00 | 0.00 | 0.00 | 27 | 1018.5 |
| 20260506181006 | 12 | 342 | 11.3 | 22.5 | 0.00 | 0.00 | 0.00 | 28 | 1018.4 |
| 20260506180502 | 12 | 324 | 6.4 | 20.9 | 0.00 | 0.00 | 0.00 | 28 | 1018.6 |
| 20260506180015 | 12 | 352 | 6.4 | 24.1 | 0.00 | 0.00 | 0.00 | 27 | 1018.4 |
| 20260506175503 | 12 | 341 | 12.9 | 24.1 | 0.00 | 0.00 | 0.00 | 29 | 1018.8 |
| 20260506175003 | 13 | 327 | 9.7 | 24.1 | 0.00 | 0.00 | 0.00 | 27 | 1018.7 |
| 20260506174507 | 12 | 331 | 9.7 | 24.1 | 0.00 | 0.00 | 0.00 | 29 | 1018.8 |
| 20260506174008 | 12 | 303 | 11.3 | 24.1 | 0.00 | 0.00 | 0.00 | 27 | 1019.0 |
| 20260506173509 | 12 | 351 | 8.0 | 20.9 | 0.00 | 0.00 | 0.00 | 27 | 1018.9 |
| 20260506173004 | 12 | 282 | 8.0 | 20.9 | 0.00 | 0.00 | 0.00 | 28 | 1018.9 |
| 20260506172506 | 12 | 337 | 4.8 | 14.5 | 0.00 | 0.00 | 0.00 | 28 | 1019.1 |
| 20260506172009 | 12 | 346 | 4.8 | 17.7 | 0.00 | 0.00 | 0.00 | 29 | 1019.1 |
| 20260506171506 | 12 | 352 | 8.0 | 17.7 | 0.00 | 0.00 | 0.00 | 32 | 1019.2 |
| 20260506171004 | 11 | 267 | 4.8 | 16.1 | 0.00 | 0.00 | 0.00 | 31 | 1019.3 |
| 20260506170505 | 11 | 316 | 8.0 | 22.5 | 0.00 | 0.00 | 0.00 | 28 | 1019.4 |
| 20260506170011 | 11 | 263 | 9.7 | 22.5 | 0.00 | 0.00 | 0.00 | 30 | 1019.4 |
| 20260506165504 | 11 | 304 | 6.4 | 19.3 | 0.00 | 0.00 | 0.00 | 29 | 1019.4 |
| 20260506165007 | 11 | 315 | 11.3 | 20.9 | 0.00 | 0.00 | 0.00 | 30 | 1019.5 |
| 20260506164516 | 11 | 300 | 9.7 | 20.9 | 0.00 | 0.00 | 0.00 | 30 | 1019.5 |
| 20260506164007 | 11 | 290 | 6.4 | 20.9 | 0.00 | 0.00 | 0.00 | 29 | 1019.5 |
| 20260506163504 | 11 | 311 | 11.3 | 22.5 | 0.00 | 0.00 | 0.00 | 28 | 1019.5 |
| 20260506163025 | 11 | 348 | 11.3 | 22.5 | 0.00 | 0.00 | 0.00 | 30 | 1019.5 |
| 20260506162508 | 11 | 352 | 9.7 | 20.9 | 0.00 | 0.00 | 0.00 | 32 | 1019.6 |
| 20260506162008 | 11 | 312 | 8.0 | 16.1 | 0.00 | 0.00 | 0.00 | 30 | 1019.6 |
| 20260506161514 | 11 | 315 | 4.8 | 17.7 | 0.00 | 0.00 | 0.00 | 32 | 1019.5 |
| 20260506161010 | 11 | 302 | 6.4 | 24.1 | 0.00 | 0.00 | 0.00 | 30 | 1019.4 |
| 20260506160513 | 11 | 250 | 6.4 | 24.1 | 0.00 | 0.00 | 0.00 | 33 | 1019.5 |
| 20260506160011 | 10 | 340 | 6.4 | 20.9 | 0.00 | 0.00 | 0.00 | 32 | 1019.5 |
| 20260506155504 | 10 | 355 | 8.0 | 24.1 | 0.00 | 0.00 | 0.00 | 32 | 1019.5 |
| 20260506155006 | 10 | 342 | 9.7 | 24.1 | 0.00 | 0.00 | 0.00 | 31 | 1019.5 |
| 20260506154505 | 10 | 340 | 9.7 | 19.3 | 0.00 | 0.00 | 0.00 | 32 | 1019.4 |
| 20260506154004 | 10 | 309 | 6.4 | 14.5 | 0.00 | 0.00 | 0.00 | 31 | 1019.3 |
| 20260506153503 | 11 | 342 | 4.8 | 19.3 | 0.00 | 0.00 | 0.00 | 32 | 1019.3 |
| 20260506153014 | 11 | 327 | 3.2 | 19.3 | 0.00 | 0.00 | 0.00 | 34 | 1019.3 |
| 20260506152504 | 10 | 299 | 6.4 | 16.1 | 0.00 | 0.00 | 0.00 | 31 | 1019.2 |
| 20260506152007 | 10 | 319 | 4.8 | 16.1 | 0.00 | 0.00 | 0.00 | 32 | 1019.2 |
| 20260506151526 | 10 | 269 | 3.2 | 17.7 | 0.00 | 0.00 | 0.00 | 33 | 1019.2 |
| 20260506151007 | 10 | 331 | 6.4 | 17.7 | 0.00 | 0.00 | 0.00 | 34 | 1019.2 |
| 20260506150505 | 10 | 347 | 4.8 | 20.9 | 0.00 | 0.00 | 0.00 | 33 | 1019.2 |
| 20260506150022 | 10 | 334 | 8.0 | 20.9 | 0.00 | 0.00 | 0.00 | 34 | 1019.2 |
| 20260506145506 | 9 | 279 | 4.8 | 17.7 | 0.00 | 0.00 | 0.00 | 33 | 1019.2 |
| 20260506145004 | 9 | 308 | 1.6 | 17.7 | 0.00 | 0.00 | 0.00 | 36 | 1019.2 |
| 20260506144512 | 9 | 341 | 9.7 | 19.3 | 0.00 | 0.00 | 0.00 | 35 | 1019.2 |
| 20260506144007 | 9 | 306 | 6.4 | 19.3 | 0.00 | 0.00 | 0.00 | 35 | 1019.2 |
| 20260506143508 | 9 | 346 | 3.2 | 17.7 | 0.00 | 0.00 | 0.00 | 36 | 1019.3 |
| 20260506143023 | 9 | 333 | 6.4 | 14.5 | 0.00 | 0.00 | 0.00 | 35 | 1019.3 |
| 20260506142506 | 8 | 345 | 6.4 | 12.9 | 0.00 | 0.00 | 0.00 | 35 | 1019.3 |
| 20260506142007 | 8 | 278 | 0.0 | 12.9 | 0.00 | 0.00 | 0.00 | 36 | 1019.3 |
| 20260506141509 | 8 | 304 | 4.8 | 12.9 | 0.00 | 0.00 | 0.00 | 37 | 1019.2 |
| 20260506141011 | 8 | 336 | 6.4 | 12.9 | 0.00 | 0.00 | 0.00 | 38 | 1019.1 |
| 20260506140511 | 8 | 341 | 4.8 | 12.9 | 0.00 | 0.00 | 0.00 | 40 | 1019.1 |
| 20260506140005 | 8 | 303 | 0.0 | 1.6 | 0.00 | 0.00 | 0.00 | 42 | 1019.1 |
| 20260506135506 | 8 | 288 | 0.0 | 0.0 | 0.00 | 0.00 | 0.00 | 45 | 1019.1 |
| 20260506135003 | 7 | 330 | 0.0 | 0.0 | 0.00 | 0.00 | 0.00 | 46 | 1019.1 |
| 20260506134506 | 7 | 254 | 0.0 | 0.0 | 0.00 | 0.00 | 0.00 | 47 | 1019.0 |
| 20260506134003 | 7 | 334 | 0.0 | 0.0 | 0.00 | 0.00 | 0.00 | 47 | 1019.0 |
| 20260506133507 | 7 | 334 | 0.0 | 0.0 | 0.00 | 0.00 | 0.00 | 48 | 1018.9 |
| 20260506133013 | 7 | 331 | 0.0 | 0.0 | 0.00 | 0.00 | 0.00 | 49 | 1018.9 |
| 20260506132506 | 6 | 331 | 0.0 | 0.0 | 0.00 | 0.00 | 0.00 | 50 | 1018.9 |
| 20260506132008 | 6 | 331 | 0.0 | 0.0 | 0.00 | 0.00 | 0.00 | 51 | 1018.8 |
| 20260506131527 | 6 | 331 | 0.0 | 0.0 | 0.00 | 0.00 | 0.00 | 52 | 1018.7 |
| 20260506131004 | 6 | 282 | 0.0 | 0.0 | 0.00 | 0.00 | 0.00 | 53 | 1018.6 |
| 20260506130507 | 5 | 279 | 0.0 | 0.0 | 0.00 | 0.00 | 0.00 | 53 | 1018.6 |
| 20260506130016 | 5 | 350 | 0.0 | 0.0 | 0.00 | 0.00 | 0.00 | 54 | 1018.6 |
| 20260506125508 | 5 | 350 | 0.0 | 0.0 | 0.00 | 0.00 | 0.00 | 55 | 1018.5 |
| 20260506125004 | 5 | 350 | 0.0 | 0.0 | 0.00 | 0.00 | 0.00 | 56 | 1018.5 |
| 20260506124507 | 5 | 350 | 0.0 | 0.0 | 0.00 | 0.00 | 0.00 | 56 | 1018.6 |
| 20260506124003 | 4 | 350 | 0.0 | 0.0 | 0.00 | 0.00 | 0.00 | 57 | 1018.4 |
| 20260506123503 | 4 | 350 | 0.0 | 0.0 | 0.00 | 0.00 | 0.00 | 57 | 1018.3 |
| 20260506123007 | 4 | 350 | 0.0 | 0.0 | 0.00 | 0.00 | 0.00 | 57 | 1018.3 |
| 20260506122504 | 3 | 350 | 0.0 | 0.0 | 0.00 | 0.00 | 0.00 | 57 | 1018.2 |
| 20260506122006 | 3 | 350 | 0.0 | 0.0 | 0.00 | 0.00 | 0.00 | 58 | 1018.1 |
| 20260506121510 | 3 | 350 | 0.0 | 0.0 | 0.00 | 0.00 | 0.00 | 59 | 1017.9 |
| 20260506121008 | 3 | 350 | 0.0 | 0.0 | 0.00 | 0.00 | 0.00 | 59 | 1017.8 |
| 20260506120507 | 3 | 350 | 0.0 | 0.0 | 0.00 | 0.00 | 0.00 | 57 | 1017.7 |
| 20260506120028 | 3 | 350 | 0.0 | 0.0 | 0.00 | 0.00 | 0.00 | 58 | 1017.7 |
| 20260506115506 | 3 | 350 | 0.0 | 0.0 | 0.00 | 0.00 | 0.00 | 58 | 1017.7 |
| 20260506115007 | 3 | 350 | 0.0 | 0.0 | 0.00 | 0.00 | 0.00 | 57 | 1017.6 |
| 20260506114523 | 3 | 350 | 0.0 | 0.0 | 0.00 | 0.00 | 0.00 | 57 | 1017.6 |